Weather History for KSAN - April, 2013

Change the Weather History Date:

Monday, April 29, 2013

  Actual Average Record
Temperature  
Mean Temperature 62 °F 63 °F  
Max Temperature 66 °F 68 °F 91 °F (2014)
Min Temperature 58 °F 58 °F 43 °F (1894)
Degree Days  
Heating Degree Days 3 3  
Month to date heating degree days 90 110  
Since 1 July heating degree days 1071 1146  
Cooling Degree Days 0 1  
Month to date cooling degree days 3 11  
Year to date cooling degree days 7 21  
Growing Degree Days 12 (Base 50)    
Moisture  
Dew Point 53 °F    
Average Humidity 72    
Maximum Humidity 80    
Minimum Humidity 63    
Precipitation  
Precipitation 0.00 in 0.02 in 0.46 in (1983)
Month to date precipitation 0.01 0.77  
Year to date precipitation 3.07 6.83  
Since 1 July precipitation 6.24  
Snow  
Snow 0.00 in - - ()
Month to date snowfall 0.0  
Year to date snowfall 0.0  
Since 1 July snowfall 0.0  
Snow Depth 0.00 in    
Sea Level Pressure  
Sea Level Pressure 29.89 in    
Wind  
Wind Speed 6 mph (SSW)    
Max Wind Speed 12 mph    
Max Gust Speed 15 mph    
Visibility 8 miles    
Events      
T = Trace of Precipitation, MM = Missing Value Source: NWS Daily Summary

Daily Weather History Graph

Daily Weather History Graph

Search for Another Location

Airport or City:

Trip Planner

Search our weather history database for the weather conditions in past years. The results will help you decide how hot, cold, wet, or windy it might be!

Date:

Astronomy

Apr. 29, 2013 Rise Set
Actual Time 6:03 AM PDT 7:29 PM PDT
Civil Twilight 5:37 AM PDT 7:55 PM PDT
Nautical Twilight 5:05 AM PDT 8:26 PM PDT
Astronomical Twilight 4:33 AM PDT 8:59 PM PDT
Moon 11:53 PM PDT (4/29) 9:34 AM PDT (4/29)
Length of Visible Light 14h 18m
Length of Day
13h 25m
Waning Gibbous, 79% of the Moon is Illuminated
Apr 29
Waning Gibbous
May 2
Last Quarter
May 9
New
May 17
First Quarter
May 24
Full

Hourly Weather History & Observations

Time (PDT) Temp. Dew Point Humidity Pressure Visibility Wind Dir Wind Speed Gust Speed Precip Events Conditions
12:51 AM 60.1 °F 54.0 °F 80% 29.94 in 7.0 mi Calm Calm - N/A   Overcast
1:51 AM 60.1 °F 54.0 °F 80% 29.93 in 7.0 mi SW 4.6 mph - N/A   Overcast
2:51 AM 59.0 °F 54.0 °F 83% 29.92 in 7.0 mi SW 4.6 mph - N/A   Overcast
3:51 AM 59.0 °F 53.1 °F 81% 29.91 in 7.0 mi Calm Calm - N/A   Overcast
4:51 AM 59.0 °F 53.1 °F 81% 29.90 in 7.0 mi South 4.6 mph - N/A   Overcast
5:51 AM 59.0 °F 53.1 °F 81% 29.90 in 7.0 mi Calm Calm - N/A   Overcast
6:25 AM 60.8 °F 53.6 °F 77% 29.91 in 7.0 mi SW 4.6 mph - N/A   Overcast
6:51 AM 59.0 °F 53.1 °F 81% 29.92 in 7.0 mi SSW 5.8 mph - N/A   Overcast
7:51 AM 60.1 °F 53.1 °F 78% 29.92 in 6.0 mi South 5.8 mph - N/A   Haze
8:51 AM 60.1 °F 53.1 °F 78% 29.92 in 7.0 mi South 5.8 mph - N/A   Overcast
9:51 AM 61.0 °F 53.1 °F 75% 29.93 in 7.0 mi South 6.9 mph - N/A   Overcast
10:51 AM 61.0 °F 53.1 °F 75% 29.92 in 8.0 mi SSW 5.8 mph - N/A   Overcast
11:22 AM 62.6 °F 53.6 °F 72% 29.92 in 8.0 mi SSW 3.5 mph - N/A   Mostly Cloudy
11:46 AM 64.4 °F 53.6 °F 68% 29.92 in 8.0 mi SSW 6.9 mph - N/A   Scattered Clouds
11:51 AM 64.0 °F 53.1 °F 67% 29.92 in 8.0 mi SW 6.9 mph - N/A   Scattered Clouds
12:51 PM 64.0 °F 53.1 °F 67% 29.91 in 9.0 mi SW 10.4 mph - N/A   Partly Cloudy
1:51 PM 64.9 °F 52.0 °F 63% 29.89 in 10.0 mi SW 8.1 mph - N/A   Partly Cloudy
2:00 PM - - N/A% - - North - - N/A   Sand
2:51 PM 64.9 °F 52.0 °F 63% 29.87 in 10.0 mi SW 8.1 mph - N/A   Partly Cloudy
3:51 PM 64.0 °F 52.0 °F 65% 29.86 in 9.0 mi SW 8.1 mph - N/A   Partly Cloudy
4:51 PM 63.0 °F 52.0 °F 67% 29.85 in 9.0 mi SSW 8.1 mph - N/A   Partly Cloudy
5:51 PM 62.1 °F 52.0 °F 70% 29.83 in 9.0 mi SSW 6.9 mph - N/A   Scattered Clouds
6:42 PM 60.8 °F 51.8 °F 72% 29.83 in 9.0 mi SW 6.9 mph - N/A   Mostly Cloudy
6:51 PM 61.0 °F 52.0 °F 72% 29.83 in 9.0 mi WSW 6.9 mph - N/A   Mostly Cloudy
7:51 PM 60.1 °F 52.0 °F 75% 29.85 in 10.0 mi SW 5.8 mph - N/A   Mostly Cloudy
8:06 PM 60.8 °F 51.8 °F 72% 29.86 in 10.0 mi SSW 5.8 mph - N/A   Mostly Cloudy
8:51 PM 60.1 °F 51.1 °F 72% 29.87 in 9.0 mi Variable 6.9 mph - N/A   Overcast
9:27 PM 60.8 °F 51.8 °F 72% 29.89 in 10.0 mi SW 8.1 mph - N/A   Overcast
9:51 PM 60.1 °F 51.1 °F 72% 29.89 in 10.0 mi South 3.5 mph - N/A   Overcast
10:51 PM 59.0 °F 51.1 °F 75% 29.90 in 10.0 mi SSW 3.5 mph - N/A   Overcast
11:51 PM 60.1 °F 51.1 °F 72% 29.89 in 10.0 mi SSE 5.8 mph - N/A   Overcast